This demonstration page uses our WeatherBlox Daily Observations layout. Learn more.

Left ArrowRight Arrow

39.51506, -84.39828

Hourly Observations for June 13, 2019

Temp ( °F °C ) Dew Point ( °F °C ) Humidity (%) Winds ( mph kmh ) Pressure ( in mb ) Visibility ( mi km ) Precip ( " mm )
12:15 am 00:15 Cloudy 64 17.8 62 16.5 92 92 SSW 8 13 29.79 1009 10 16 N/A
12:35 am 00:35 Cloudy 64 17.6 61 16.3 92 92 SW 8 13 29.78 1008 10 16 N/A
12:55 am 00:55 Partly Cloudy 63 17.2 61 16.2 94 94 SSW 7 11 29.77 1008 10 16 N/A
1:15 am 01:15 Mostly Cloudy with Nearby Thunderstorms 63 17.3 62 16.5 95 95 WSW 5 7 29.77 1008 10 16 N/A
1:35 am 01:35 Mostly Cloudy 63 17.4 62 16.6 95 95 WSW 7 11 29.76 1008 10 16 N/A
1:55 am 01:55 Partly Cloudy 63 17.2 62 16.4 95 95 WSW 7 11 29.76 1008 10 16 N/A
2:15 am 02:15 Partly Cloudy 63 17.2 62 16.5 96 96 WSW 8 13 29.75 1007 10 16 N/A
2:35 am 02:35 Cloudy 63 17.3 61 16.1 93 93 WSW 6 9 29.75 1007 10 16 N/A
2:55 am 02:55 Cloudy 62 16.8 58 14.6 87 87 WNW 6 9 29.76 1008 10 16 N/A
3:15 am 03:15 Mostly Cloudy 62 16.4 57 14 86 86 N N/A 29.75 1008 10 16 N/A
3:35 am 03:35 Cloudy 61 16.2 57 14 87 87 N N/A 29.74 1007 10 16 N/A
3:55 am 03:55 Cloudy 61 16 56 13.6 86 86 SSW 3 6 29.74 1007 10 16 N/A
4:15 am 04:15 Cloudy 60 15.7 57 13.8 89 89 N N/A 29.74 1007 10 16 N/A
4:35 am 04:35 Cloudy 60 15.6 56 13.3 86 86 WSW 5 7 29.74 1007 10 16 N/A
4:55 am 04:55 Cloudy 59 15.2 57 13.9 92 92 W 3 6 29.74 1007 10 16 N/A
5:15 am 05:15 Cloudy 60 15.3 56 13.6 90 90 WSW 5 7 29.74 1007 10 16 N/A
5:35 am 05:35 Cloudy 60 15.4 56 13.4 88 88 SW 5 7 29.74 1007 10 16 N/A
5:55 am 05:55 Cloudy 60 15.3 56 13.3 88 88 WSW 5 7 29.74 1007 10 16 N/A
6:15 am 06:15 Cloudy 60 15.4 56 13.2 87 87 WSW 6 9 29.75 1007 10 16 N/A
6:35 am 06:35 Cloudy 60 15.7 54 12.4 81 81 WSW 8 13 29.74 1007 10 16 N/A
6:55 am 06:55 Cloudy 60 15.7 54 12.1 79 79 WSW 8 13 29.74 1007 10 16 N/A
7:15 am 07:15 Cloudy 60 15.7 54 12 79 79 WSW 13 20 29.75 1008 10 16 N/A
7:35 am 07:35 Mostly Cloudy 60 15.4 54 12.2 81 81 WSW 8 13 29.76 1008 10 16 N/A
7:55 am 07:55 Cloudy 62 16.4 55 12.6 78 78 SW 12 19 29.75 1008 10 16 N/A
8:15 am 08:15 Cloudy 60 15.7 54 12.4 81 81 WSW 12 19 29.75 1008 10 16 N/A
8:35 am 08:35 Cloudy with Light Rain 58 14.6 56 13.3 92 92 SW 12 19 29.76 1008 5 8 N/A
8:55 am 08:55 Cloudy 58 14.7 56 13.3 91 91 WSW 9 15 29.76 1008 10 16 N/A
9:15 am 09:15 Cloudy with Light Rain 58 14.7 57 13.7 94 94 SW 10 17 29.76 1008 2 3 0.01 0.25
9:35 am 09:35 Cloudy with Light Rain 58 14.4 55 12.9 91 91 W 15 24 29.77 1008 7 11 0.03 0.76
10:15 am 10:15 Mostly Cloudy 59 15.2 53 11.6 79 79 WNW 18 30 29.79 1009 10 16 N/A
10:35 am 10:35 Cloudy 58 14.2 50 10.2 77 77 WNW 16 26 29.80 1009 10 16 N/A
10:55 am 10:55 Mostly Cloudy 61 16.1 52 10.9 71 71 WNW 14 22 29.79 1009 10 16 N/A
11:15 am 11:15 Partly Cloudy 61 16.3 51 10.6 69 69 W 17 28 29.80 1009 10 16 N/A
11:35 am 11:35 Cloudy 60 15.6 50 9.9 69 69 W 15 24 29.81 1009 10 16 N/A
11:55 am 11:55 Cloudy 59 15.2 50 9.8 70 70 W 15 24 29.82 1010 10 16 N/A
12:15 pm 12:15 Cloudy 60 15.5 51 10.3 71 71 W 18 30 29.83 1010 10 16 N/A
12:35 pm 12:35 Cloudy with Light Rain 59 15.2 51 10.3 73 73 W 14 22 29.83 1010 10 16 N/A
12:55 pm 12:55 Cloudy 58 14.7 50 10 74 74 W 15 24 29.84 1010 10 16 N/A
1:15 pm 13:15 Cloudy 60 15.5 49 9.4 67 67 W 14 22 29.85 1011 10 16 N/A
1:35 pm 13:35 Cloudy 60 15.8 48 8.9 64 64 W 21 33 29.85 1011 10 16 N/A
1:55 pm 13:55 Cloudy 62 16.5 48 9.1 62 62 WNW 17 28 29.85 1011 10 16 N/A
2:15 pm 14:15 Cloudy 62 16.4 48 9 62 62 W 18 30 29.85 1011 10 16 N/A
2:35 pm 14:35 Mostly Cloudy 64 17.5 49 9.7 60 60 W 20 31 29.86 1011 10 16 N/A
2:55 pm 14:55 Cloudy 62 16.9 49 9.3 61 61 WNW 18 30 29.86 1011 10 16 N/A
3:15 pm 15:15 Mostly Cloudy 63 17.1 48 9.1 60 60 W 20 31 29.86 1011 10 16 N/A
3:35 pm 15:35 Cloudy with Light Rain 57 14.1 51 10.6 80 80 WNW 18 30 29.89 1012 7 11 0.01 0.25
3:55 pm 15:55 Mostly Cloudy 62 16.4 55 12.8 79 79 WNW 12 19 29.88 1012 10 16 0.01 0.25
4:15 pm 16:15 Cloudy with Light Rain 59 15.1 52 10.9 76 76 WNW 15 24 29.91 1013 10 16 N/A
4:35 pm 16:35 Mostly Cloudy 62 16.6 51 10.7 68 68 WNW 21 33 29.90 1013 10 16 N/A
4:55 pm 16:55 Cloudy 60 15.6 51 10.7 73 73 W 18 30 29.92 1013 10 16 N/A
5:15 pm 17:15 Cloudy 59 14.8 51 10.8 77 77 W 16 26 29.93 1013 10 16 N/A
5:35 pm 17:35 Cloudy with Light Rain 60 15.4 52 11 75 75 W 13 20 29.94 1014 10 16 N/A
5:55 pm 17:55 Cloudy 60 15.7 50 10.2 70 70 WNW 15 24 29.94 1014 10 16 N/A
6:15 pm 18:15 Mostly Cloudy 60 15.5 47 8.5 63 63 NW 18 30 29.97 1015 10 16 N/A
6:35 pm 18:35 Cloudy 59 15.1 47 8.5 65 65 WNW 14 22 29.97 1015 10 16 N/A
6:55 pm 18:55 Cloudy 60 15.3 46 8 62 62 NW 20 31 29.98 1015 10 16 N/A
7:15 pm 19:15 Mostly Cloudy 59 15.2 46 7.8 62 62 NW 10 17 29.99 1015 10 16 N/A
7:35 pm 19:35 Mostly Cloudy 60 15.3 46 7.8 61 61 WNW 14 22 29.99 1015 10 16 N/A
7:55 pm 19:55 Sunny 60 15.4 46 7.7 60 60 NW 14 22 30.00 1016 10 16 N/A
8:15 pm 20:15 Sunny 59 15 46 7.7 62 62 WNW 13 20 30.01 1016 10 16 N/A
8:35 pm 20:35 Sunny 58 14.5 45 7.4 63 63 WNW 12 19 30.01 1016 10 16 N/A
8:55 pm 20:55 Sunny 57 13.9 45 7.2 64 64 WNW 7 11 30.02 1017 10 16 N/A
9:15 pm 21:15 Clear 56 13.1 45 7.4 69 69 W 6 9 30.02 1017 10 16 N/A
9:35 pm 21:35 Clear 54 12 46 7.7 75 75 WSW 5 7 30.03 1017 10 16 N/A
9:55 pm 21:55 Clear 52 11 47 8.1 82 82 WSW 7 11 30.05 1017 10 16 N/A
10:15 pm 22:15 Clear 52 10.9 46 7.9 82 82 W 7 11 30.06 1018 10 16 N/A
10:35 pm 22:35 Clear 51 10.5 46 7.8 84 84 W 7 11 30.07 1018 10 16 N/A
10:55 pm 22:55 Clear 51 10.6 46 7.5 81 81 W 7 11 30.08 1019 10 16 N/A
11:15 pm 23:15 Clear 49 9.7 46 7.5 86 86 W 6 9 30.08 1019 10 16 N/A
11:35 pm 23:35 Clear 52 11 46 7.6 80 80 W 8 13 30.08 1019 10 16 N/A
11:55 pm 23:55 Clear 52 11.3 45 7.4 77 77 W 8 13 30.08 1018 10 16 N/A

Powered by AerisWeather